Location: Centerville
(32.8776°N, 96.6203°W)
Time: 01:42:08
(UTC+00:00)

SL-16 R/B - Pass Details

Date: 17 June 2021
Orbit: 985 x 1007 km, 99.5° (Epoch: 27 July)

Event Time Altitude Azimuth Distance (km) Brightness Sun altitude
Exits shadow 08:11:28 56° 136° (SE) 1,166 2.7 -28.5°
Maximum altitude 08:12:44 73° 74° (ENE) 1,039 2.6 -28.4°
Drops below altitude 10° 08:18:55 10° 351° (N) 2,757 5.5 -27.8°
Sets 08:21:23 0° 349° (N) 3,707 6.2 -27.5°
